Weather in Pay

Russia / Republic of Karelia     61°12′26″N   34°26′10″E
temp.,
°C
wind,
m/s
gust,
m/s
humid.,
%
clouds,
%
prec.,
mm/h
press.,
hPa
HPBL,
m
22 may, sun
sun2200:000ne25755 0.0 1015100
03:00−2ne257918 0.0 101592
06:00+1ne25675 0.0 1015312
09:00+4nne46454 0.0 10141156
12:00+6nne57390 0.0 10141186
15:00+8nne57340 0.0 10131390
18:00+8nne48373 0.0 10121343
21:00+3n23601 0.0 101254
23 may, mon
mon2300:00−1n28790 0.0 1012173
03:00−1n310804 0.0 1012339
06:00+1n49715 0.0 1011489
09:00+5n584527 0.0 1010878
12:00+9n583699 0.0 10091241
15:00+11n6932100 0.0 10081598
18:00+8nne51239100 0.0 10081327
21:00+5n51247100 0.0 1009906
24 may, tue
tue2400:00+3n41356100 0.0 1008873
03:00+2n41167100 0.0 1009872
06:00+1n41094100 0.5 1010777
09:00+3n5878100 0.9 1011995
12:00+4nne4771100 0.1 10121136
15:00+5nne4667100 0.1 10131100
18:00+5nne3670100 0.0 1014937
21:00+4nne2681100 0.0 1016567
25 may, wed
wed2500:00+3n258976 0.0 1016242
03:00+1nnw239781 0.0 101763
06:00+3n138599 0.0 1017335
09:00+4n1292100 0.1 1016401
12:00+5nne1381100 0.1 1016686
15:00+6nne1276100 0.1 1015767
18:00+7ne1275100 0.0 1014501
21:00+5ene1381100 0.0 1014142
26 may, thu
thu2600:00+3e128862 0.0 101340
03:00+1ene119562 0.0 101211
06:00+3ene128539 0.0 1011162
09:00+8e236383 0.0 1009922
12:00+11e445337 0.0 10071155
15:00+11ese445479 0.0 10051265
18:00+10ese455994 0.0 10041209
21:00+6e25797 0.0 1004110